Tracking 28895 objects as of 27-May-2024
HD Live streaming from Space Station
objects crossing your sky now

PALAPA 2

Track PALAPA 2 now!
PALAPA 2 is classified as:


NORAD ID: 9862
Int'l Code: 1977-018A
Perigee: 35,834.8 km
Apogee: 35,888.6 km
Inclination: 10.1 °
Period: 1,439.6 minutes
Semi major axis: 42232 km
RCS: 5.6864 m2 (large)
Launch date: March 10, 1977
Source: Indonesia (INDO)
Launch site: AIR FORCE EASTERN TEST RANGE (AFETR)
Your satellite tracking list
Your tracking list is empty




NASA's NSSDC Master Catalog

Two Line Element Set (TLE):
1 09862U 77018A   24147.45269010 -.00000146  00000-0  00000-0 0  9995
2 09862  10.1403 315.6873 0006369 126.2803 235.1295  1.00029841135590
Source of the keplerian elements: AFSPC